Falls City, NE

11:49 AM CDT on March 28, 2017 (GMT -0500)
Brenner

Weather History for KFNB - July, 2013

Change the Weather History Date:

Tuesday, July 9, 2013

  Actual Average Record
Temperature  
Mean Temperature 86 °F -  
Max Temperature 97 °F 91 °F 102 °F (1980)
Min Temperature 75 °F 67 °F 52 °F (1953)
Cooling Degree Days 21    
Growing Degree Days 36 (Base 50)    
Moisture  
Dew Point 74 °F    
Average Humidity 72    
Maximum Humidity 97    
Minimum Humidity 47    
Precipitation  
Precipitation 0.38 in - - ()
Sea Level Pressure  
Sea Level Pressure 29.89 in    
Wind  
Wind Speed 7 mph (SSW)    
Max Wind Speed 10 mph    
Max Gust Speed 16 mph    
Visibility 9 miles    
Events Rain , Thunderstorm    
Averages and records for this station are not official NWS values.
T = Trace of Precipitation, MM = Missing Value Source: NWS Daily Summary

Daily Weather History Graph

Daily Weather History Graph

Search for Another Location

Airport or City:

Trip Planner

Search our weather history database for the weather conditions in past years. The results will help you decide how hot, cold, wet, or windy it might be!

Date:

Astronomy

Jul. 09, 2013 Rise Set
Actual Time 6:01 AM CDT 8:53 PM CDT
Civil Twilight 5:29 AM CDT 9:25 PM CDT
Nautical Twilight 4:48 AM CDT 10:06 PM CDT
Astronomical Twilight 4:01 AM CDT 10:52 PM CDT
Moon 7:27 AM CDT (7/9) 9:31 PM CDT (7/9)
Length of Visible Light 15h 55m
Length of Day
14h 51m
New Moon, 2% of the Moon is Illuminated
Jul 9
New Moon
Jul 15
First Quarter
Jul 22
Full
Jul 29
Last Quarter
Aug 6
New

Hourly Weather History & Observations

Time (CDT) Temp. Heat Index Dew Point Humidity Pressure Visibility Wind Dir Wind Speed Gust Speed Precip Events Conditions
1:53 AM 82.0 °F 85.5 °F 69.1 °F 65% 29.91 in 10.0 mi SSW 8.1 mph - N/A   Clear
2:53 AM 81.0 °F 84.4 °F 70.0 °F 69% 29.90 in 10.0 mi South 6.9 mph - N/A   Scattered Clouds
3:37 AM 82.4 °F 86.3 °F 69.8 °F 66% 29.93 in 10.0 mi SSW 9.2 mph - N/A Thunderstorm Thunderstorm
3:53 AM 81.0 °F 84.4 °F 70.0 °F 69% 29.93 in 9.0 mi WSW 8.1 mph - N/A   Mostly Cloudy
4:07 AM 78.8 °F - 71.6 °F 78% 29.98 in 6.0 mi West 6.9 mph - 0.07 in Rain , Thunderstorm Heavy Thunderstorms and Rain
4:23 AM 75.2 °F - 73.4 °F 94% 29.99 in 1.8 mi WSW 8.1 mph - 0.30 in Rain , Thunderstorm Heavy Thunderstorms and Rain
4:32 AM 77.0 °F - 73.4 °F 89% 29.99 in 3.0 mi WSW 8.1 mph - 0.32 in Rain , Thunderstorm Light Thunderstorms and Rain
4:53 AM 77.0 °F - 73.9 °F 90% 29.95 in 10.0 mi WSW 9.2 mph - 0.34 in Rain , Thunderstorm Light Rain
5:53 AM 75.9 °F - 75.0 °F 97% 29.91 in 10.0 mi SSE 10.4 mph - 0.03 in Rain Light Rain
6:53 AM 77.0 °F - 73.0 °F 88% 29.91 in 10.0 mi SE 3.5 mph - 0.00 in   Clear
7:53 AM 75.9 °F - 72.0 °F 87% 29.88 in 10.0 mi SSE 10.4 mph - 0.01 in   Partly Cloudy
8:53 AM 78.1 °F - 73.9 °F 87% 29.90 in 10.0 mi East 6.9 mph - N/A   Mostly Cloudy
9:53 AM 80.1 °F 84.5 °F 73.9 °F 81% 29.88 in 10.0 mi SE 8.1 mph - N/A   Mostly Cloudy
10:53 AM 87.1 °F 95.4 °F 73.9 °F 65% 29.90 in 10.0 mi SSW 10.4 mph 16.1 mph N/A   Partly Cloudy
11:53 AM 90.0 °F 99.0 °F 73.9 °F 59% 29.89 in 10.0 mi South 6.9 mph - N/A   Clear
12:53 PM 91.9 °F 103.2 °F 75.0 °F 58% 29.88 in 10.0 mi SSW 9.2 mph - N/A   Clear
1:53 PM 93.9 °F 104.0 °F 73.9 °F 52% 29.86 in 10.0 mi SW 5.8 mph - N/A   Clear
2:53 PM 97.0 °F 107.7 °F 73.9 °F 47% 29.86 in 10.0 mi SW 10.4 mph - N/A   Clear
3:53 PM 97.0 °F 110.9 °F 75.9 °F 51% 29.85 in 10.0 mi West 9.2 mph - N/A   Clear
4:53 PM 96.1 °F 107.1 °F 73.9 °F 49% 29.84 in 10.0 mi NW 3.5 mph - N/A   Clear
5:53 PM 97.0 °F 110.9 °F 75.9 °F 51% 29.83 in 10.0 mi North 3.5 mph - N/A   Clear
6:53 PM 96.1 °F 111.0 °F 77.0 °F 54% 29.82 in 10.0 mi Calm Calm - N/A   Clear
7:53 PM 91.0 °F 109.1 °F 80.1 °F 70% 29.82 in 10.0 mi North 4.6 mph - N/A   Clear
8:53 PM 87.1 °F 99.8 °F 78.1 °F 74% 29.84 in 10.0 mi Calm Calm - N/A   Clear
9:53 PM 84.0 °F 94.8 °F 78.1 °F 82% 29.85 in 10.0 mi ENE 4.6 mph - N/A   Clear
10:53 PM 84.0 °F 93.7 °F 77.0 °F 79% 29.87 in 10.0 mi NE 4.6 mph - N/A   Clear
11:53 PM 82.0 °F 90.2 °F 77.0 °F 85% 29.88 in 10.0 mi NNE 3.5 mph - N/A   Clear